Petersburg, AK

8:15 AM AKST on February 10, 2016 (GMT -0900)
Johnson Petersburg

Weather History for PAPG - May, 2012

Change the Weather History Date:

Monday, May 14, 2012

  Actual Average Record
Temperature  
Mean Temperature 42 °F -  
Max Temperature 53 °F 51 °F 67 °F (1993)
Min Temperature 32 °F 38 °F 32 °F (2012)
Degree Days  
Heating Degree Days 22    
Moisture  
Dew Point 34 °F    
Average Humidity 72    
Maximum Humidity 93    
Minimum Humidity 47    
Precipitation  
Precipitation 0.00 in - - ()
Sea Level Pressure  
Sea Level Pressure 30.26 in    
Wind  
Wind Speed 5 mph (South)    
Max Wind Speed 12 mph    
Max Gust Speed -    
Visibility 10 miles    
Events      
Averages and records for this station are not official NWS values.
T = Trace of Precipitation, MM = Missing Value Source: NWS Daily Summary

Daily Weather History Graph

Daily Weather History Graph

Search for Another Location

Airport or City:

Trip Planner

Search our weather history database for the weather conditions in past years. The results will help you decide how hot, cold, wet, or windy it might be!

Date:

Astronomy

May. 14, 2012 Rise Set
Actual Time 4:35 AM AKDT 9:02 PM AKDT
Civil Twilight 3:43 AM AKDT 9:54 PM AKDT
Nautical Twilight 2:20 AM AKDT 11:20 PM AKDT
Astronomical Twilight Sun does not rise Sun does not rise
Moon 2:21 AM AKDT (5/14) 2:27 PM AKDT (5/14)
Length of Visible Light 18h 11m
Length of Day
16h 27m
Waning Crescent, 31% of the Moon is Illuminated
May 14
Waning Crescent
May 20
New
May 28
First Quarter
Jun 4
Full
Jun 11
Last Quarter

Hourly Weather History & Observations

Time (AKDT) Temp. Windchill Dew Point Humidity Pressure Visibility Wind Dir Wind Speed Gust Speed Precip Events Conditions
12:36 AM 37.4 °F 32.8 °F 33.8 °F 87% 30.40 in 10.0 mi SSW 5.8 mph - N/A   Scattered Clouds
12:56 AM 35.6 °F 31.7 °F 32.0 °F 87% 30.40 in 10.0 mi WSW 4.6 mph - N/A   Partly Cloudy
1:16 AM 35.6 °F 31.7 °F 32.0 °F 87% 30.39 in 10.0 mi WSW 4.6 mph - N/A   Clear
1:36 AM 33.8 °F - 30.2 °F 87% 30.39 in 10.0 mi Calm Calm - N/A   Clear
2:16 AM 33.8 °F 29.6 °F 32.0 °F 93% 30.38 in 10.0 mi SW 4.6 mph - N/A   Clear
2:36 AM 35.6 °F 31.7 °F 33.8 °F 93% 30.38 in 10.0 mi SW 4.6 mph - N/A   Clear
2:56 AM 35.6 °F 30.7 °F 33.8 °F 93% 30.37 in 10.0 mi SW 5.8 mph - N/A   Clear
3:36 AM 35.6 °F 32.8 °F 33.8 °F 93% 30.36 in 10.0 mi West 3.5 mph - N/A   Clear
3:56 AM 33.8 °F 30.8 °F 30.2 °F 87% 30.36 in 10.0 mi WSW 3.5 mph - N/A   Partly Cloudy
4:16 AM 33.8 °F - 32.0 °F 93% 30.35 in 10.0 mi Calm Calm - N/A   Partly Cloudy
4:36 AM 32.0 °F 28.7 °F 30.2 °F 93% 30.34 in 10.0 mi WSW 3.5 mph - N/A   Clear
5:16 AM 33.8 °F 30.8 °F 32.0 °F 93% 30.33 in 10.0 mi WSW 3.5 mph - N/A   Clear
5:36 AM 32.0 °F - 30.2 °F 93% 30.33 in 10.0 mi Calm Calm - N/A   Clear
5:56 AM 33.8 °F - 32.0 °F 93% 30.32 in 10.0 mi Calm Calm - N/A   Clear
6:36 AM 35.6 °F - 33.8 °F 93% 30.32 in 10.0 mi Calm Calm - N/A   Clear
7:16 AM 35.6 °F - 33.8 °F 93% 30.31 in 10.0 mi Calm Calm - N/A   Clear
7:36 AM 37.4 °F - 35.6 °F 93% 30.31 in 10.0 mi Calm Calm - N/A   Clear
7:56 AM 39.2 °F 35.9 °F 37.4 °F 93% 30.30 in 10.0 mi ENE 4.6 mph - N/A   Partly Cloudy
8:16 AM 37.4 °F 34.9 °F 35.6 °F 93% 30.30 in 10.0 mi ENE 3.5 mph - N/A   Partly Cloudy
8:36 AM 39.2 °F 37.0 °F 35.6 °F 87% 30.30 in 10.0 mi ENE 3.5 mph - N/A   Partly Cloudy
8:56 AM 41.0 °F 39.0 °F 35.6 °F 81% 30.29 in 10.0 mi NE 3.5 mph - N/A   Partly Cloudy
9:16 AM 42.8 °F 41.1 °F 35.6 °F 76% 30.29 in 10.0 mi ENE 3.5 mph - N/A   Partly Cloudy
9:36 AM 42.8 °F 40.1 °F 33.8 °F 70% 30.28 in 10.0 mi East 4.6 mph - N/A   Partly Cloudy
9:56 AM 44.6 °F 42.2 °F 37.4 °F 76% 30.28 in 10.0 mi NE 4.6 mph - N/A   Partly Cloudy
10:16 AM 42.8 °F 39.3 °F 35.6 °F 76% 30.28 in 10.0 mi ENE 5.8 mph - N/A   Partly Cloudy
10:36 AM 44.6 °F 43.1 °F 33.8 °F 66% 30.28 in 10.0 mi ENE 3.5 mph - N/A   Partly Cloudy
10:56 AM 44.6 °F 42.2 °F 35.6 °F 71% 30.28 in 10.0 mi ENE 4.6 mph - N/A   Partly Cloudy
11:16 AM 44.6 °F 41.4 °F 37.4 °F 76% 30.27 in 10.0 mi ENE 5.8 mph - N/A   Partly Cloudy
11:36 AM 44.6 °F 41.4 °F 35.6 °F 71% 30.27 in 10.0 mi ENE 5.8 mph - N/A   Partly Cloudy
11:56 AM 46.4 °F 43.5 °F 37.4 °F 71% 30.26 in 10.0 mi ENE 5.8 mph - N/A   Partly Cloudy
12:16 PM 46.4 °F 43.5 °F 37.4 °F 71% 30.26 in 10.0 mi ENE 5.8 mph - N/A   Partly Cloudy
12:36 PM 46.4 °F 43.5 °F 35.6 °F 66% 30.25 in 10.0 mi East 5.8 mph - N/A   Partly Cloudy
12:56 PM 48.2 °F - 33.8 °F 58% 30.25 in 10.0 mi ENE 5.8 mph - N/A   Partly Cloudy
1:16 PM 48.2 °F - 33.8 °F 58% 30.25 in 10.0 mi NE 5.8 mph - N/A   Partly Cloudy
1:36 PM 50.0 °F - 35.6 °F 58% 30.24 in 10.0 mi ENE 5.8 mph - N/A   Partly Cloudy
1:56 PM 50.0 °F - 33.8 °F 54% 30.24 in 10.0 mi ENE 5.8 mph - N/A   Mostly Cloudy
2:16 PM 51.8 °F - 35.6 °F 54% 30.24 in 10.0 mi East 5.8 mph - N/A   Mostly Cloudy
2:36 PM 51.8 °F - 35.6 °F 54% 30.23 in 10.0 mi ENE 5.8 mph - N/A   Mostly Cloudy
2:56 PM 51.8 °F - 33.8 °F 50% 30.23 in 10.0 mi ENE 6.9 mph - N/A   Scattered Clouds
3:16 PM 51.8 °F - 33.8 °F 50% 30.22 in 10.0 mi ENE 8.1 mph - N/A   Scattered Clouds
3:36 PM 50.0 °F - 33.8 °F 54% 30.22 in 10.0 mi NE 5.8 mph - N/A   Scattered Clouds
3:56 PM 50.0 °F - 35.6 °F 58% 30.21 in 10.0 mi NE 5.8 mph - N/A   Scattered Clouds
4:16 PM 50.0 °F - 33.8 °F 54% 30.21 in 10.0 mi NE 5.8 mph - N/A   Scattered Clouds
4:36 PM 48.2 °F - 33.8 °F 58% 30.21 in 10.0 mi NE 3.5 mph - N/A   Scattered Clouds
4:56 PM 50.0 °F - 35.6 °F 58% 30.21 in 10.0 mi Calm Calm - N/A   Scattered Clouds
5:16 PM 51.8 °F - 35.6 °F 54% 30.20 in 10.0 mi Calm Calm - N/A   Scattered Clouds
5:36 PM 53.6 °F - 33.8 °F 47% 30.19 in 10.0 mi WSW 6.9 mph - N/A   Scattered Clouds
5:56 PM 53.6 °F - 35.6 °F 51% 30.19 in 10.0 mi SW 9.2 mph - N/A   Scattered Clouds
6:16 PM 51.8 °F - 35.6 °F 54% 30.19 in 10.0 mi WSW 8.1 mph - N/A   Scattered Clouds
6:36 PM 50.0 °F - 35.6 °F 58% 30.19 in 10.0 mi WSW 8.1 mph - N/A   Scattered Clouds
6:56 PM 48.2 °F - 35.6 °F 62% 30.19 in 10.0 mi WSW 10.4 mph - N/A   Mostly Cloudy
7:16 PM 48.2 °F - 35.6 °F 62% 30.19 in 10.0 mi WSW 8.1 mph - N/A   Mostly Cloudy
7:36 PM 48.2 °F - 35.6 °F 62% 30.19 in 10.0 mi WSW 8.1 mph - N/A   Mostly Cloudy
7:56 PM 46.4 °F 43.5 °F 33.8 °F 62% 30.20 in 10.0 mi WSW 5.8 mph - N/A   Mostly Cloudy
8:16 PM 46.4 °F 42.4 °F 33.8 °F 62% 30.20 in 10.0 mi WSW 8.1 mph - N/A   Mostly Cloudy
8:36 PM 46.4 °F 42.4 °F 33.8 °F 62% 30.20 in 10.0 mi WSW 8.1 mph - N/A   Mostly Cloudy
8:56 PM 44.6 °F 41.4 °F 33.8 °F 66% 30.21 in 10.0 mi WSW 5.8 mph - N/A   Mostly Cloudy
9:16 PM 44.6 °F 41.4 °F 33.8 °F 66% 30.21 in 10.0 mi WSW 5.8 mph - N/A   Mostly Cloudy
9:36 PM 44.6 °F 41.4 °F 33.8 °F 66% 30.21 in 10.0 mi SW 5.8 mph - N/A   Mostly Cloudy
9:56 PM 44.6 °F 39.7 °F 33.8 °F 66% 30.21 in 10.0 mi SW 9.2 mph - N/A   Overcast
10:16 PM 44.6 °F 38.8 °F 33.8 °F 66% 30.21 in 10.0 mi SW 11.5 mph - N/A   Overcast
10:36 PM 42.8 °F 38.6 °F 35.6 °F 76% 30.22 in 10.0 mi SW 6.9 mph - N/A   Overcast
10:56 PM 42.8 °F 40.1 °F 35.6 °F 76% 30.22 in 10.0 mi SW 4.6 mph - N/A   Overcast
11:16 PM 42.8 °F 41.1 °F 35.6 °F 76% 30.21 in 10.0 mi SW 3.5 mph - N/A   Overcast
11:36 PM 42.8 °F 41.1 °F 35.6 °F 76% 30.22 in 10.0 mi SW 3.5 mph - N/A   Mostly Cloudy
11:56 PM 42.8 °F - 35.6 °F 76% 30.22 in 10.0 mi Calm Calm - N/A   Overcast